Flag for Germany Weather past 2 weeks in Bad Neuenahr-Ahrweiler, Rhineland-Palatinate, Germany

Now
57 °F

Clear.


Feels Like: 57 °F
Forecast: 54 / 79 °F
Wind: 2 mph from East

Location: Bonn-Hangelar

Current Time: Jul 25, 2014 at 4:39:29 AM

Latest Report: Jul 25, 2014 at 4:00 AM


Visibility: 13 mi

Pressure: 29.96 "Hg

Humidity: 92%

Dew point: 55 °F

Location of Bad Neuenahr-AhrweilerLocation

Historic Weather in Bad Neuenahr-Ahrweiler — Graph

°F

Bad Neuenahr-Ahrweiler temperature yesterday

Maximum temperature yesterday: 77 °F (at 2:00 PM)
Minimum temperature yesterday: 60 °F (at 6:00 AM)
Average temperature yesterday: 67 °F

Past Weeks' High & Low Weather Summary

 TemperatureHumidityPressure
High93 °F (Jul 19, 5:00 PM)100% (Jul 10, 3:00 AM)30.20 "Hg (Jul 10, 3:00 AM)
Low54 °F (Jul 15, 2:00 AM)23% (Jul 19, 3:00 PM)29.73 "Hg (Jul 10, 4:00 AM)
Average68 °F77%29.96 "Hg
* Reported Jul 10 3:00 AM — Jul 25 3:00 AM, Bad Neuenahr-Ahrweiler, Weather by CustomWeather, © 2014

Note: Actual official high and low records may vary slightly from our data, if they occured in-between our weather recording intervals... More about our weather records

Advertising

Bad Neuenahr-Ahrweiler weather history for previous 24 hours

 ConditionsComfort  
Time TempWeatherWind HumidityBarometerVisibility
3:00 AM
Jul 25
59 °FOvercast.2 mph89%29.98 "Hg19 mi
2:00 AM60 °FOvercast.3 mph87%29.99 "Hg16 mi
1:00 AM60 °FOvercast.3 mph90%29.99 "Hg12 mi
12:00 AM61 °FOvercast.2 mph87%29.97 "Hg13 mi
11:00 PM
Jul 24
61 °FOvercast.3 mph90%29.98 "Hg9 mi
10:00 PM63 °FOvercast.5 mph89%29.98 "Hg11 mi
9:00 PM64 °FScattered clouds.3 mph89%29.96 "Hg25 mi
8:00 PM64 °FOvercast.3 mph87%29.94 "Hg19 mi
7:00 PM65 °FThunderstorms. Overcast.3 mph83%29.93 "Hg25 mi
6:00 PM65 °FThundershowers. Partly sunny.5 mph81%29.94 "Hg22 mi
5:00 PM72 °FThunderstorms. Partly sunny.8 mph57%29.96 "Hg22 mi
4:00 PM75 °FPartly sunny.6 mph51%29.92 "Hg28 mi
3:00 PM77 °FPartly sunny.3 mph44%29.93 "Hg22 mi
2:00 PM77 °FSunny.3 mph45%29.94 "Hg18 mi
1:00 PM75 °FPartly sunny.5 mph51%29.95 "Hg19 mi
12:00 PM74 °FPartly sunny.3 mph53%29.96 "Hg19 mi
11:00 AM71 °FPartly sunny.3 mph61%29.96 "Hg19 mi
10:00 AM68 °FPartly sunny.5 mph72%29.98 "Hg19 mi
9:00 AM66 °FScattered clouds.5 mph79%29.97 "Hg19 mi
8:00 AM64 °FPassing clouds.3 mph88%29.97 "Hg12 mi
7:00 AM61 °FPassing clouds.3 mph93%29.97 "Hg12 mi
6:00 AM60 °FPassing clouds.2 mph95%29.98 "Hg12 mi
5:00 AM61 °FFog.3 mph96%29.98 "Hg2 mi
4:00 AM64 °FClear.2 mph88%29.98 "Hg6 mi
Weather by CustomWeather, © 2014

See weather overviewHow to use our weather pages